Yatton Keynell, United Kingdom

6:34 AM BST on April 19, 2019 (GMT +0100)
Yatton Keynell

Weather History for 03740 - July, 2007

Change the Weather History Date:

Wednesday, July 18, 2007

  Actual Average Record
Temperature  
Mean Temperature 60 °F -  
Max Temperature 68 °F 68 °F - ()
Min Temperature 53 °F 53 °F - ()
Degree Days  
Heating Degree Days 4    
Growing Degree Days 10 (Base 50)    
Moisture  
Dew Point 51 °F    
Average Humidity 72    
Maximum Humidity 100    
Minimum Humidity 33    
Precipitation  
Precipitation 0.00 in 0.08 in - ()
Sea Level Pressure  
Sea Level Pressure 30.03 in    
Wind  
Wind Speed 8 mph ()    
Max Wind Speed 16 mph    
Max Gust Speed -    
Visibility 7.3 miles    
Events      
T = Trace of Precipitation, MM = Missing Value Source: Averaged Metar Reports

Daily Weather History Graph

Daily Weather History Graph

Search for Another Location

Airport or City:

Astronomy

Jul. 18, 2007 Rise Set
Actual Time 5:11 AM BST 9:16 PM BST
Civil Twilight 4:27 AM BST 9:59 PM BST
Nautical Twilight 3:24 AM BST 11:02 PM BST
Astronomical Twilight 1:46 AM BST 12:41 AM BST
Moon 9:45 AM BST (7/18) 10:57 PM BST (7/18)
Length of Visible Light 17h 32m
Length of Day
16h 04m
Waxing Crescent, 16% of the Moon is Illuminated
Jul 18
Waxing Crescent
Jul 22
First Quarter
Jul 30
Full
Aug 5
Last Quarter
Aug 13
New

Hourly Weather History & Observations

Time (BST) Temp. Dew Point Humidity Pressure Visibility Wind Dir Wind Speed Gust Speed Precip Events Conditions
12:50 AM 54 °F 54 °F 98% 29.97 in 11 mi South 5.8 mph - -   Partly Cloudy
12:50 AM 53.6 °F 53.6 °F 100% 29.95 in 6.2 mi South 5.8 mph - N/A   Partly Cloudy
1:50 AM 53.6 °F 53.6 °F 100% 29.95 in 6.2 mi South 4.6 mph - N/A   Mostly Cloudy
2:50 AM 55.4 °F 53.6 °F 94% 29.95 in 6.2 mi SSE 8.1 mph - N/A   Mostly Cloudy
3:50 AM 55 °F 54 °F 97% 29.96 in 9 mi South 5.8 mph - -   Mostly Cloudy
3:50 AM 55.4 °F 53.6 °F 94% 29.95 in 6.2 mi South 5.8 mph - N/A   Mostly Cloudy
4:50 AM 55.4 °F 55.4 °F 100% 29.95 in 6.2 mi South 6.9 mph - N/A   Mostly Cloudy
5:50 AM 55.4 °F 53.6 °F 94% 29.95 in 6.2 mi South 8.1 mph - N/A   Mostly Cloudy
6:50 AM 56 °F 55 °F 95% 29.97 in 14 mi SSW 6.9 mph - -   Mostly Cloudy
6:50 AM 55.4 °F 55.4 °F 100% 29.95 in 6.2 mi SSW 6.9 mph - N/A   Mostly Cloudy
7:50 AM 57.2 °F 55.4 °F 94% 29.98 in 6.2 mi SSW 10.4 mph - N/A   Mostly Cloudy
8:50 AM 59.0 °F 55.4 °F 88% 30.01 in 6.2 mi SW 11.5 mph - N/A   Mostly Cloudy
9:50 AM 60 °F 55 °F 80% 30.03 in 19 mi WSW 12.7 mph - -   Mostly Cloudy
9:50 AM 60.8 °F 55.4 °F 82% 30.01 in 6.2 mi WSW 12.7 mph - N/A   Mostly Cloudy
10:50 AM 62.6 °F 53.6 °F 72% 30.04 in 6.2 mi WSW 16.1 mph - N/A   Mostly Cloudy
11:50 AM 64.4 °F 51.8 °F 64% 30.04 in 6.2 mi WSW 13.8 mph - N/A   Scattered Clouds
12:50 PM 64 °F 50 °F 50% 30.05 in 25 mi WSW 13.8 mph - -   Partly Cloudy
12:50 PM 64.4 °F 50.0 °F 59% 30.04 in 6.2 mi WSW 13.8 mph - N/A   Scattered Clouds
1:50 PM 64.4 °F 50.0 °F 59% 30.06 in 6.2 mi West 13.8 mph - N/A   Scattered Clouds
2:50 PM 66.2 °F 48.2 °F 52% 30.06 in 6.2 mi WSW 15.0 mph - N/A   Partly Cloudy
3:50 PM 68 °F 47 °F 37% 30.08 in 25 mi West 15.0 mph - -   Scattered Clouds
3:50 PM 68.0 °F 48.2 °F 49% 30.06 in 6.2 mi West 15.0 mph - N/A   Partly Cloudy
4:50 PM 68.0 °F 46.4 °F 46% 30.06 in 6.2 mi West 16.1 mph - N/A   Partly Cloudy
5:50 PM 66.2 °F 44.6 °F 46% 30.06 in - WSW 13.8 mph - N/A   Clear
6:50 PM 66 °F 44 °F 33% 30.08 in 25 mi WSW 11.5 mph - -   Scattered Clouds
6:50 PM 66.2 °F 44.6 °F 46% 30.06 in - WSW 11.5 mph - N/A   Clear
7:50 PM 64.4 °F 46.4 °F 52% 30.09 in 6.2 mi WSW 10.4 mph - N/A   Mostly Cloudy
8:50 PM 60.8 °F 46.4 °F 59% 30.09 in 6.2 mi WSW 6.9 mph - N/A   Scattered Clouds
9:50 PM 59 °F 47 °F 56% 30.12 in 25 mi SW 4.6 mph - -   Partly Cloudy
9:50 PM 59.0 °F 48.2 °F 67% 30.09 in 6.2 mi SW 4.6 mph - N/A   Scattered Clouds
10:50 PM 59.0 °F 50.0 °F 72% 30.12 in 6.2 mi SW 6.9 mph - N/A   Mostly Cloudy
11:50 PM 57.2 °F 51.8 °F 82% 30.12 in - WSW 6.9 mph - N/A   Clear